sat.trackr.live / text

‹ back to catalog

ZIYUAN 3-04 (ZY 3-04)

NORAD 67131 · 2025-300A

PAYLOAD ACTIVE UNKNOWN

§ Identity

Operator
Country
PRC
Launch date
2025-12-16
Launch site
TAISC
Launch vehicle
Mass (kg)
RCS (m²)

External: N2YO · Heavens-Above · Gunter

§ Orbital elements

Epoch: 2026-05-25T03:24:27.027936Z

Period
94.65 min
Inclination
97.4735°
Eccentricity
0.0007145
Mean motion
15.21421174 rev/d
Perigee alt
496.6 km
Apogee alt
506.5 km
Semi-major
6,879.7 km
B*
1.7934e-4
RAAN
223.2153°
Arg perigee
38.1639°
Mean anomaly
322.0101°
Rev number
2,433

§ Raw data

ZIYUAN 3-04 (ZY 3-04)1 67131U 25300A   26145.14197949  .00003958  00000+0  17934-3 0  99912 67131  97.4735 223.2153 0007145  38.1639 322.0101 15.21421174 24339

JSON: /api/v1/satellites/67131 · /tle

For live sub-satellite position, see the globe view (requires WebGL).

§ Visibility from observer

Set your observer location to see the next 7 days of passes ≥ 10°. The values pass through the URL so the page stays shareable.

No JS? Fill the form by hand. The geolocation button needs JavaScript.

§ Radio — SatNOGS DB

ModeDescriptionDownlinkUplink
FM S-band telemetry 2.215 GHz

1 transmitter · refreshed weekly from db.satnogs.org